RH
40 40 39 38 37 34 31 37 45 59 67 77 78 76 77 76 76 78 76 74 75 62 54 49 50 66 69 66 71 70 68 68 65 68 63 57 54 54 53 56 62 63 61
40 41 42 43 44 43 42 33 33 44 51 58 71 80 78 76 73 72 72 68 75 67 58 65 66 71 73 74 75 67 65 64 60 51 51 52 56 55 52 57 56 65 60
41 41 41 44 46 48 48 44 32 32 40 49 55 64 69 76 76 73 72 69 70 67 56 64 66 70 74 70 66 65 62 57 54 55 57 62 64 64 60 56 54 59 64
44 42 40 41 43 46 47 49 44 33 32 36 42 52 57 62 67 65 65 70 65 62 58 55 63 70 71 70 69 62 58 57 57 59 63 62 60 56 57 58 52 51 50
48 45 41 42 42 44 44 46 52 49 40 37 33 36 48 55 60 63 64 66 65 65 59 51 56 59 61 62 61 55 54 56 60 64 66 67 66 55 52 51 50 46 44
44 50 48 45 45 45 46 47 47 49 50 47 45 40 35 42 50 53 57 60 62 60 59 55 47 44 53 58 55 58 64 68 72 70 68 65 56 57 50 47 47 45 40
51 50 52 50 48 49 49 49 48 51 51 49 47 46 44 41 40 48 51 53 55 56 57 57 51 46 51 55 60 64 66 65 63 62 60 61 58 54 49 45 41 41 42
59 56 58 55 53 54 52 50 50 54 58 57 49 46 45 42 45 47 51 51 52 52 52 52 50 51 54 54 54 54 53 52 56 60 60 62 61 52 48 44 41 41 41
68 62 62 64 60 61 57 55 54 55 57 59 60 53 47 42 44 44 47 52 52 53 54 53 52 49 48 51 52 50 48 54 64 64 59 60 58 49 44 47 50 49 48
68 67 66 66 74 66 60 60 58 57 57 56 60 60 57 54 51 49 48 49 53 54 53 52 50 50 51 54 52 52 59 72 71 64 65 59 52 47 50 60 60 59 55
69 68 69 68 66 63 64 61 58 60 61 62 64 72 83 80 76 75 68 67 54 56 55 48 44 44 49 54 58 61 67 75 70 63 58 59 52 46 56 57 60 60 62
59 61 69 74 72 68 65 69 72 67 67 72 83 89 93 87 74 60 53 52 68 68 60 54 48 45 49 56 63 72 74 70 64 57 53 51 43 43 44 35 38 41 42
61 65 63 63 72 70 63 75 73 69 69 69 64 76 95 84 69 59 54 52 57 65 67 65 65 59 55 55 69 76 71 63 60 52 43 38 32 41 35 38 39 41 46
66 67 68 63 64 64 65 70 70 71 69 73 62 64 70 67 63 60 57 56 56 58 63 67 69 66 65 69 71 71 72 64 54 47 38 34 40 38 34 33 35 37 41
71 71 72 73 72 71 65 63 61 60 56 51 53 56 58 58 53 47 45 46 47 50 60 69 80 81 72 70 68 59 58 53 46 49 37 40 41 30 30 32 35 39 41
69 68 69 72 78 80 76 72 66 63 59 55 53 51 52 50 55 52 50 44 45 51 61 65 81 79 74 61 57 53 49 55 50 47 39 37 30 28 29 32 34 39 42
66 66 67 64 70 73 76 76 73 76 74 68 59 52 53 56 55 52 51 49 47 52 57 60 61 59 54 54 53 55 50 54 52 45 38 24 28 27 29 31 34 37 40
63 66 69 66 64 70 71 68 79 94 88 79 73 67 62 59 57 50 48 52 51 51 55 59 60 56 55 52 58 56 49 44 43 40 26 21 27 28 30 32 35 37 37
54 62 67 66 63 66 67 64 67 68 64 59 61 60 58 56 54 50 47 48 48 49 52 55 57 55 51 51 58 57 47 43 42 31 23 22 27 29 31 32 36 37 36
49 51 60 67 66 59 59 57 54 54 56 52 50 47 52 53 50 44 42 44 47 49 47 54 60 59 56 56 54 52 51 48 43 34 27 24 28 29 30 33 36 36 34
64 61 62 53 54 60 57 55 54 53 48 45 43 46 45 44 46 50 47 41 43 46 49 50 55 58 60 60 52 47 50 52 48 39 29 27 29 30 30 34 38 35 32
71 62 57 54 56 54 50 50 52 49 42 38 36 38 39 42 42 43 46 43 41 43 46 47 49 51 55 56 51 51 47 46 43 39 42 43 38 36 35 35 36 34 30
72 71 73 59 49 46 44 58 58 51 41 39 39 38 37 37 38 37 43 47 51 46 45 46 49 52 52 56 54 52 48 43 40 41 44 48 44 41 39 34 31 32 31
76 72 72 69 61 72 60 54 43 42 47 44 43 42 42 41 41 39 40 51 49 57 51 52 52 54 57 62 64 61 56 52 48 48 50 54 48 46 43 41 36 37 36
71 72 77 80 81 69 76 95 73 67 71 55 65 62 56 51 54 52 53 59 70 69 56 60 58 61 67 69 67 65 63 60 57 52 52 58 53 48 48 48 43 39 37
90 87 89 89 90 85 90 82 70 60 62 60 66 69 56 54 59 67 63 58 67 61 62 65 71 69 71 75 74 72 72 68 61 59 64 61 59 55 55 53 53 50 44